Погода Уля

Погода Уля : погода сейчас, прогноз погоды и архив. Всё, что Вы хотите узнать о погоде Уля!

Поиск расширенной информации на нашем сайте:

Другие новости

Новости СМИ2

Главная страница сайта

Новости сайта

02.10.2013

Напоминаем, что на нашем новом сайте вы можете получить высокодетализированные прогнозы погоды по пунктам России, СНГ и мира (включающие важные для авиации метеовеличины, такие как направление и скорость ветра, видимость, явления погоды, количество и форма облачности, нижняя и верхняя граница облачности), а также ознакомиться с разнообразными материалами по авиационной метеорологии и подборкой полезных ссылок на эту тему.

Сайт Метеоцентр.Азия посвящён разработке технологий оптимизации авиаметеорологического обслуживания, включая проектирование и перспективное создание нескольких автоматизированных авиаметеорологических систем:
- система выпуска высокодетальных прогностических карт явлений погоды для нижнего воздушного пространства по России и ближнему зарубежью;
- система верификации прогнозов TAF (выпускаемых синоптиками официальных АМСГ РФ и ближнего зарубежья) и AUTOTAF (выпускаемых сайтом Метеоцентр.Азия) - выявление ошибок, онлайн-сопоставление с фактической погодой METAR, автоматическое внесение коррективов в прогнозы при резком отклонении фактической погоды от прогноза, подсчёт оправдываемости прогнозов по элементам и в целом;
- система обработки, анализа и отображения авиаметеорологической информации для применения провайдерами метеорологической информации.


Погода Уля - сегодня

Время (UTC), дата Ветер
(°,м/с) 
Видим.   Явления Облачность Т
(°С)
Тd
(°С)
f(%) Тe
(°С)
Pmin
(гПа)
dP
(гПа)
Po
(мм)
O2
(г/м3)
Тmin Tmax R s Состояние
почвы
03 15.02.17 340 (С) 9-10{10}  20000 м    3/0 верхняя 
[Ci fib]
-10.4 -24.7 30 -17  1012.1  759  319           
09 15.02.17 340 (С) 3{10}  20000 м    3/0 верхняя 
[Ci fib]
-12 -24.4 35 -15  1012.9  759  322    -10       
15 15.02.17 340 (С) 20000 м    4/0 верхняя 
[Ci fib]
-15 -27.1 35 -19  1013.6  760  326           
21 15.02.17 340 (С) 10 км  слаб. снег  8/8 1000 м 
[Sc]
-13.8 -20.9 55 -16  1014.4  760  324  -15.6    0.0  10  равномерный
мокрый или
старый снег
100% 
03 16.02.17 340 (С) 20000 м    10/0 верхняя 
[Cs]
-15.3 -20.4 65 -20  1015.2  761  326           
09 16.02.17 340 (С) 10 км  слаб. снег  10/0 верхняя 
[Cs]
-15.8 -21.8 60 -18  1015.4  761  327    -14.8  0.0     
15 16.02.17 340 (С) 10 км  {снег}  6/0 средняя 
[Ac trans]
-17.6 -24.5 55 -24  1015.5  761  330           
21 16.02.17 340 (С) 20000 м    ясно 
-19.2 -27 50 -23  1015.5  761  332  -19.9    0.0  10  равномерный
сухой снег
100% 
03 17.02.17 340 (С) 20000 м    ясно 
-17.2 -26.3 45 -21  1015.2  761  329           
09 17.02.17 360 (С) 20000 м    4/0 верхняя 
[Ci fib]
-17.8 -26.9 45 -18  1015  761  330    -16.9       
15 17.02.17 340 (С) 20000 м    4/0 верхняя 
[Ci fib]
-19.4 -28.4 45 -25  1014.6  760  332           
21 17.02.17 340 (С) 20000 м    3/0 средняя 
[Ac trans]
-21.1 -29.9 45 -29  1013.4  760  334  -21.7      мокрый или
старый снег
50-90% 
03 18.02.17 290 (З) 8-10{10}  20000 м    6/0 верхняя 
[Ci fib]
-18.1 -28.4 40 -26  1011.6  758  329           
09 18.02.17 290 (З) 10-12{12}  20000 м    10/0 верхняя 
[Cs]
-18.4 -30.1 35 -28  1009.8  757  329    -17.6       
15 18.02.17 290 (З) 10-14{14}  20000 м    10/0 верхняя 
[Cs]
-20.8 -32.3 35 -31  1008.4  756  332           
21 18.02.17 290 (З) 10-12{14}  20000 м    6/0 верхняя 
[Cs]
-21.2 -32.7 35 -31  1006.8  755  332  -21.7      мокрый или
старый снег
50-90% 
03 19.02.17 340 (С) 9-12{12}  20000 м    4/0 средняя 
[Ac trans]
-17.2 -26.3 45 -26  1005.6  754  326           
09 19.02.17 340 (С) 8{12}  20000 м    10/0 верхняя 
[Cs]
-16 -25.2 45 -24  1005.4  754  324    -15.7       
15 19.02.17 340 (С) 20000 м    10/0 верхняя 
[Cs]
-16.4 -25.4 46 -24  1003.6  753  324           
21 19.02.17 340 (С) 20000 м    10/0 верхняя 
[Cs]
-16.8 -27.2 40 -25  1005.1  753  325  -17.4      мокрый или
старый снег
50-90% 
03 20.02.17 340 (С) 3-10{10}  20000 м    10/0 средняя 
[As trans]
-14 -27.8 30 -18    754  322           
09 20.02.17 330 (СЗ) 9-10{10}  20000 м    10/0 средняя 
[As trans]
-12.8 -26.7 30 -20  1006.2  754  321    -12.4       
15 20.02.17 320 (СЗ) 9-12{12}  20000 м    ясно 
-14 -27.9 30 -22  1007.1  755  322           
21 20.02.17 320 (СЗ) 9-12{12}  20000 м    6/0 средняя 
[As op]
-15 -27.1 35 -23  1008.1  756  324  -15.7      мокрый или
старый снег
50-90% 
03 21.02.17 340 (С) 9-12{12}  20000 м    10/0 средняя 
[Ac As]
-13.1 -23.9 40 -21  1008.5  756  322           
Время (UTC), дата Ветер
(°,м/с) 
Видим.   Явления Облачность Т
(°С)
Тd
(°С)
f(%) Тe
(°С)
Pmin
(гПа)
dP
(гПа)
Po
(мм)
O2
(г/м3)
Тmin Tmax R s Состояние
почвы

Для получения пояснительной информации подведите курсор к названию столбца.

ПОГОДА Уля - архив

Всё, что Вы хотите узнать о погоде Уля - удобно и подробно!

Выберите нужную дату (начиная с 1 января 2015* года) и нажмите кнопку "Найти".
Будут отображены архивные сводки погоды по пункту Уля, начиная с указанной даты.


Отображать данные в формате CSV (для использования в таблицах Excel)


Внимание! Наш архив погоды предназначен исключительно для личного некоммерческого использования в познавательных целях. Если Вам необходимы официальные справки о состоянии погоды (для производственных, юридических, коммерческих и т.п. целей), обращайтесь в органы Росгидромета.

*Примечание: данная дата относится к архиву по метеостанциям СССР (Россия, СНГ, Балтия).
Архив по метеостанциям Зарубежной Европы и Азии (кроме Китая) хранится 10 дней, по другим регионам земного шара (Китай, Африка, Америка, Австралия, Океания) - 1 день.

Уля - район местоположения метеостанции


Название, широта, долгота, высота метеостанции:
Уля 58.8°ш. 141.7°д. 4 м над ур. моря [Российская Федерация]

Дополнительная информация

В oтличие oт бoльшинства пoгoдных сайтoв мы публикуем пoдрoбную метеoинфoрмацию в детальнoм прoфессиoнальнoм фoрмате.

Характеристики температуры и влажнoсти вoздуха измеряются на высoте 2 м в тени вдали oт зданий и деревьев.
Скoрoсть ветра измеряется на высoте 10 м (на урoвне рoста челoвека скoрoсть ветра ниже в 1.5-2 раза). Если метеoстанция нахoдится в гoрoде или в лесу, тo скoрoсть ветра занижена на 2-4 м/с пo сравнению с oткрытым местoм. Скoрoсть ветра над акватoриями крупных рек и oзёр, а также на вершинах хoлмoв на 2-5 м/с выше, чем в oбычных услoвиях.
Атмoсфернoе давление в разных тoчках местнoсти мoжет значительнo oтличаться oт давления на метеoстанции, в зависимoсти oт услoвий рельефа (при пoдъёме на 10 м давление пoнижается примернo на 1 мм рт.ст.).